This is the latest recevied weather packets stored in our database for station/object KE8WMS. If no packets are shown the sender has not sent any weather packets the latest 10 day(s).
| Time | Temp. | Humidity | Pressure | Rain* | Wind** | Luminosity | Snow |
|---|---|---|---|---|---|---|---|
| 1778119928 | 6.67° C | 87% | 1010.2 hPa | 0 mm | - | 0 W/m² | - |
| 1778119627 | 6.67° C | 87% | 1010.2 hPa | 0 mm | - | 0 W/m² | - |
| 1778119322 | 6.67° C | 86% | 1010.3 hPa | 0 mm | - | 0 W/m² | - |
| 1778119021 | 6.67° C | 86% | 1010.1 hPa | 0 mm | - | 0 W/m² | - |
| 1778118718 | 6.67° C | 86% | 1010.2 hPa | 0 mm | - | 0 W/m² | - |
| 1778118414 | 7.22° C | 86% | 1010.2 hPa | 0 mm | - | 0 W/m² | - |
| 1778118110 | 7.22° C | 85% | 1010 hPa | 0 mm | - | 0 W/m² | - |
| 1778117807 | 7.22° C | 84% | 1010 hPa | 0 mm | - | 0 W/m² | - |
| 1778117504 | 7.22° C | 83% | 1010.1 hPa | 0 mm | - | 0 W/m² | - |
| 1778117202 | 7.22° C | 82% | 1009.7 hPa | 0 mm | - | 0 W/m² | - |
| 1778116897 | 7.78° C | 83% | 1009.7 hPa | 0 mm | - | 0 W/m² | - |
| 1778116595 | 7.78° C | 82% | 1010.1 hPa | 0 mm | - | 0 W/m² | - |
| 1778116291 | 7.78° C | 81% | 1010 hPa | 0 mm | - | 0 W/m² | - |
| 1778115986 | 7.78° C | 80% | 1010 hPa | 0 mm | - | 0 W/m² | - |
| 1778115682 | 7.78° C | 78% | 1009.9 hPa | 0 mm | - | 0 W/m² | - |
| 1778115380 | 7.78° C | 78% | 1010 hPa | 0 mm | - | 0 W/m² | - |
| 1778115076 | 7.78° C | 77% | 1010.1 hPa | 0 mm | - | 0 W/m² | - |
| 1778114773 | 8.33° C | 76% | 1009.9 hPa | 0 mm | - | 0 W/m² | - |
| 1778114470 | 8.33° C | 76% | 1009.9 hPa | 0 mm | - | 1 W/m² | - |
| 1778114166 | 8.33° C | 75% | 1009.8 hPa | 0 mm | - | 1 W/m² | - |
| 1778113861 | 8.33° C | 74% | 1009.8 hPa | 0 mm | - | 2 W/m² | - |
| 1778113558 | 8.33° C | 76% | 1009.7 hPa | 0 mm | - | 3 W/m² | - |
| 1778113254 | 8.33° C | 78% | 1010 hPa | 0 mm | - | 4 W/m² | - |
| 1778112951 | 8.89° C | 75% | 1010 hPa | 0 mm | - | 5 W/m² | - |
| 1778112648 | 8.89° C | 72% | 1010 hPa | 0 mm | - | 6 W/m² | - |
* Rain latest hour (hover to see other rain measurements)
** Current wind speed in m/s (hover to see current wind gust speed)